Waarnemingen

Advertentie
Mijn weer
Pertusato, Frankrijk (7770): temperatuur & dauwpunt: 15.08.2018 06:00:00 - 21.08.2018 06:00:00 (CEST)Pertusato, Frankrijk (7770): windsnelheid & windstoten: 15.08.2018 06:00:00 - 21.08.2018 06:00:00 (CEST)Pertusato, Frankrijk (7770): windrichting: 15.08.2018 06:00:00 - 21.08.2018 06:00:00 (CEST)Pertusato, Frankrijk (7770): luchtdruk: 15.08.2018 06:00:00 - 21.08.2018 06:00:00 (CEST)Pertusato, Frankrijk (7770): zicht: 15.08.2018 06:00:00 - 21.08.2018 06:00:00 (CEST)Pertusato, Frankrijk (7770): neerslag: 15.08.2018 06:00:00 - 21.08.2018 06:00:00 (CEST)
Datum & Tijd tt [°C] td [°C] ff [km/u] ff [kn] fx [km/u] fx [kn] dd ppp [hPa] vv [km] rr [mm]
21.08.2018 06:00:00 24,1 18,5 4 2 11 6 N 1013,7 - 0,0
21.08.2018 05:00:00 24,2 17,7 11 6 14 7 NO 1013,4 - 0,0
21.08.2018 04:00:00 24,2 17,7 11 6 19 10 NNO 1013,7 - 0,0
21.08.2018 03:00:00 24,4 18,3 13 7 19 10 ONO 1013,6 - 0,0
21.08.2018 02:00:00 24,6 18,1 14 8 21 11 ONO 1013,6 - 0,0
21.08.2018 01:00:00 24,4 18,3 16 9 22 12 NO 1014,2 - 0,0
21.08.2018 00:00:00 24,0 20,3 17 9 26 14 NO 1013,9 - 0,0
20.08.2018 23:00:00 24,6 21,1 14 8 23 13 NO 1014,3 - 0,0
20.08.2018 22:00:00 24,3 19,4 8 5 11 6 NNO 1014,5 - 0,0
20.08.2018 21:00:00 24,7 19,5 3 2 9 5 N 1014,3 - 0,0
20.08.2018 20:00:00 26,4 22,0 5 3 12 7 WNW 1013,9 15 0,0
20.08.2018 19:00:00 27,6 21,6 11 6 23 12 W 1012,8 - 0,0
20.08.2018 18:00:00 28,7 21,7 13 7 23 13 WNW 1012,7 - 0,0
20.08.2018 17:00:00 28,6 21,9 16 8 19 11 W 1013,3 - 0,0
20.08.2018 16:00:00 28,9 22,2 16 9 26 14 W 1013,1 - 0,0
20.08.2018 15:00:00 29,9 19,0 6 3 22 12 WNW 1013,3 - 0,0
20.08.2018 14:00:00 27,0 21,7 2 1 24 13 N 1014,2 - 0,0
20.08.2018 13:00:00 28,0 21,5 7 4 13 7 ZW 1014,3 - 0,0
20.08.2018 12:00:00 27,1 22,5 4 2 13 7 WNW 1014,5 - 0,0
20.08.2018 11:00:00 26,8 22,6 5 3 16 9 W 1014,6 17 0,0
20.08.2018 10:00:00 27,2 21,7 6 3 16 9 W 1014,2 - 0,0
20.08.2018 09:00:00 26,8 21,8 5 3 8 4 W 1014,2 - 0,0
20.08.2018 08:00:00 25,7 21,4 3 2 9 5 WZW 1013,9 17 0,0
20.08.2018 07:00:00 24,2 20,7 5 3 11 6 W 1013,9 - 0,0
20.08.2018 06:00:00 24,3 20,2 6 4 12 6 WZW 1013,6 - 0,0
20.08.2018 05:00:00 24,5 20,6 8 5 16 9 W 1013,7 - 0,0
20.08.2018 04:00:00 24,0 20,7 10 5 18 10 W 1014,1 - 0,0
20.08.2018 03:00:00 24,3 21,0 11 6 18 10 W 1014,4 - 0,0
20.08.2018 02:00:00 24,4 21,5 11 6 21 11 WNW 1014,9 - 0,0
20.08.2018 01:00:00 24,8 21,7 9 5 21 12 W 1015,3 - 0,0
20.08.2018 00:00:00 24,7 21,4 7 4 24 13 N 1015,4 - 0,0
19.08.2018 23:00:00 24,9 21,4 8 4 26 14 NW 1015,4 - 0,0
19.08.2018 22:00:00 25,2 20,2 9 5 23 12 W 1015,4 - 0,0
19.08.2018 21:00:00 24,8 21,7 14 7 24 13 W 1015,3 - 0,0
19.08.2018 20:00:00 24,6 20,9 12 6 23 12 WNW 1015,1 22 0,0
19.08.2018 19:00:00 25,3 19,2 8 4 18 10 WNW 1014,8 - 0,0
19.08.2018 18:00:00 25,8 19,4 9 5 32 18 Z 1015,4 - 0,0
19.08.2018 17:00:00 27,9 19,9 6 3 35 19 ZW 1015,3 - 0,0
19.08.2018 16:00:00 24,9 19,9 21 11 48 26 ZZW 1015,6 - 0,0
19.08.2018 15:00:00 28,2 21,0 9 5 36 19 NNW 1015,4 - 0,0
19.08.2018 14:00:00 28,9 19,5 16 9 24 13 W 1015,7 - 0,0
19.08.2018 13:00:00 27,4 20,0 13 7 26 14 W 1016,4 - 0,0
19.08.2018 12:00:00 26,8 20,9 14 8 24 13 W 1016,7 - 0,0
19.08.2018 11:00:00 26,2 21,0 16 9 29 16 W 1016,7 15 0,0
19.08.2018 10:00:00 25,6 21,3 9 5 24 13 WNW 1016,7 - 0,0
19.08.2018 09:00:00 25,5 21,4 4 2 16 9 N 1016,4 - 0,0
19.08.2018 08:00:00 25,3 19,9 3 2 10 6 ZW 1016,4 15 0,0
19.08.2018 07:00:00 22,1 18,3 3 2 6 3 ZO 1016,4 - 0,0
19.08.2018 06:00:00 22,3 18,1 5 3 8 4 ONO 1016,1 - 0,0
19.08.2018 05:00:00 22,7 20,0 6 3 10 5 WNW 1016,2 - 0,0
19.08.2018 04:00:00 23,6 20,1 6 4 11 6 W 1016,5 - 0,0
19.08.2018 03:00:00 24,3 21,0 6 4 15 8 W 1016,5 - 0,0
19.08.2018 02:00:00 24,6 20,7 10 6 22 12 W 1016,5 - 0,0
19.08.2018 01:00:00 24,7 20,2 9 5 26 14 WNW 1016,7 - 0,0
19.08.2018 00:00:00 24,7 20,4 9 5 22 12 WNW 1016,9 - 0,0
18.08.2018 23:00:00 24,6 20,3 8 5 20 11 N 1016,9 - 0,0
18.08.2018 22:00:00 25,0 20,3 5 3 11 6 W 1016,8 - 0,0
18.08.2018 21:00:00 24,7 19,3 4 2 11 6 W 1016,4 - 0,0
18.08.2018 20:00:00 25,1 18,5 3 1 19 10 W 1015,8 15 0,0
18.08.2018 19:00:00 26,4 18,3 6 3 16 9 ZZO 1015,6 - 0,0
18.08.2018 18:00:00 29,5 14,9 8 5 25 13 W 1015,6 - 0,0
18.08.2018 17:00:00 27,6 21,2 11 6 28 15 OZO 1016,2 15 0,0
18.08.2018 16:00:00 28,4 21,2 18 10 30 16 O 1015,6 - 0,0
18.08.2018 15:00:00 29,6 21,0 21 11 33 18 O 1015,4 - 0,0
18.08.2018 14:00:00 30,0 20,0 23 13 32 18 O 1015,4 16 0,0
18.08.2018 13:00:00 30,3 19,3 19 11 30 16 O 1016,0 - 0,0
18.08.2018 12:00:00 29,8 19,2 13 7 22 12 O 1016,1 - 0,0
18.08.2018 11:00:00 25,9 18,6 14 7 26 14 O 1016,4 20 0,0
18.08.2018 10:00:00 28,9 20,6 15 8 26 14 O 1016,0 - 0,0
18.08.2018 09:00:00 27,5 19,6 13 7 21 11 NO 1016,0 - 0,0
18.08.2018 08:00:00 24,8 20,5 14 7 19 11 NO 1015,6 15 0,0
18.08.2018 07:00:00 23,0 20,0 11 6 14 8 NO 1015,5 - 0,0
18.08.2018 06:00:00 22,1 19,1 11 6 15 8 NO 1015,1 - 0,0
18.08.2018 05:00:00 22,3 18,9 11 6 16 8 NO 1014,9 15 0,0
18.08.2018 04:00:00 22,9 19,3 5 3 9 5 NNO 1014,9 - 0,0
18.08.2018 03:00:00 24,7 20,2 4 2 18 10 W 1014,9 - 0,0
18.08.2018 02:00:00 25,3 19,9 5 3 14 7 Z 1014,8 - 0,0
18.08.2018 01:00:00 24,7 19,5 4 2 10 5 Z 1015,1 - 0,0
18.08.2018 00:00:00 23,5 18,4 8 5 13 7 ONO 1015,1 - 0,0
17.08.2018 23:00:00 23,8 18,2 9 5 13 7 NO 1015,0 20 0,0
17.08.2018 22:00:00 24,7 17,9 5 3 13 7 NO 1015,1 - 0,0
17.08.2018 21:00:00 25,0 18,9 9 5 12 6 NO 1014,6 - 0,0
17.08.2018 20:00:00 26,6 19,5 6 4 20 11 N 1014,2 20 0,0
17.08.2018 19:00:00 28,0 20,6 13 7 27 15 WNW 1013,5 - 0,0
17.08.2018 18:00:00 28,4 20,7 16 9 28 15 W 1013,3 - 0,0
17.08.2018 17:00:00 28,5 20,2 19 10 27 15 W 1013,5 - 0,0
17.08.2018 16:00:00 28,6 21,1 18 10 30 16 W 1014,0 - 0,0
17.08.2018 15:00:00 28,9 20,1 18 10 26 14 W 1014,1 - 0,0
17.08.2018 14:00:00 28,5 20,2 18 10 28 15 W 1014,6 - 0,0
17.08.2018 13:00:00 27,7 21,3 20 11 28 15 W 1014,6 - 0,0
17.08.2018 12:00:00 27,4 21,0 9 5 22 12 W 1014,8 - 0,0
17.08.2018 11:00:00 27,0 20,8 7 4 19 10 W 1014,9 - 0,0
17.08.2018 10:00:00 26,6 20,7 8 5 16 9 WNW 1014,8 - 0,0
17.08.2018 09:00:00 26,3 20,2 7 4 10 5 W 1014,6 - 0,0
17.08.2018 08:00:00 25,2 20,0 6 3 9 5 WNW 1014,4 22 0,0
17.08.2018 07:00:00 23,3 20,2 7 4 10 6 W 1014,2 - 0,0
17.08.2018 06:00:00 23,8 20,5 6 3 11 6 W 1013,9 - 0,0
17.08.2018 05:00:00 24,3 21,2 4 2 16 9 WNW 1013,7 - 0,0
17.08.2018 04:00:00 24,3 21,0 6 4 17 9 Z 1013,9 - 0,0
17.08.2018 03:00:00 24,0 20,3 4 2 9 5 ZW 1014,0 - 0,0
17.08.2018 02:00:00 24,2 19,9 6 4 10 6 W 1014,1 - 0,0
17.08.2018 01:00:00 24,4 19,9 4 2 10 5 W 1014,1 - 0,0
17.08.2018 00:00:00 23,6 18,9 0 0 5 3 N 1014,0 - 0,0
16.08.2018 23:00:00 23,2 18,3 6 3 8 4 OZO 1013,8 - 0,0
16.08.2018 22:00:00 24,1 19,0 2 1 6 3 ONO 1013,8 - 0,0
16.08.2018 21:00:00 25,3 19,2 2 1 10 5 Z 1013,5 - 0,0
16.08.2018 20:00:00 26,2 19,6 4 2 18 10 W 1013,2 22 0,0
16.08.2018 19:00:00 26,5 19,1 11 6 22 12 WNW 1013,0 - 0,0
16.08.2018 18:00:00 27,2 16,8 10 5 28 15 N 1013,6 - 0,0
16.08.2018 17:00:00 30,3 14,8 19 10 34 18 NO 1013,4 - 0,0
16.08.2018 16:00:00 30,3 17,0 20 11 34 18 O 1013,2 - 0,0
16.08.2018 15:00:00 30,7 16,3 19 10 37 20 ONO 1013,9 - 0,0
16.08.2018 14:00:00 31,7 17,2 15 8 29 16 NO 1014,1 - 0,0
16.08.2018 13:00:00 30,9 17,2 10 5 31 17 ONO 1014,4 - 0,0
16.08.2018 12:00:00 30,6 15,5 18 10 35 19 NNO 1014,5 - 0,0
16.08.2018 11:00:00 29,3 16,5 22 12 37 20 ONO 1014,7 20 0,0
16.08.2018 10:00:00 28,3 16,9 21 12 35 19 NO 1014,5 - 0,0
16.08.2018 09:00:00 27,1 16,7 22 12 34 19 NO 1014,5 - 0,0
16.08.2018 08:00:00 25,3 16,7 14 7 23 12 ONO 1014,4 - 0,0
16.08.2018 07:00:00 22,7 15,8 14 8 18 10 NO 1014,4 - 0,0
16.08.2018 06:00:00 22,4 16,0 13 7 16 9 NO 1014,3 - 0,0
16.08.2018 05:00:00 22,9 16,2 8 4 17 9 NNO 1014,2 20 0,0
16.08.2018 04:00:00 22,6 16,4 13 7 18 10 NO 1014,4 - 0,0
16.08.2018 03:00:00 22,6 16,6 13 7 20 11 NNO 1014,4 - 0,0
16.08.2018 02:00:00 23,0 16,5 15 8 22 12 NNO 1014,6 - 0,0
16.08.2018 01:00:00 22,4 16,4 14 8 18 10 NNO 1014,7 - 0,0
16.08.2018 00:00:00 22,4 16,7 12 6 18 10 NNO 1014,7 - 0,0
15.08.2018 23:00:00 22,3 17,4 9 5 17 9 ONO 1014,6 - 0,0
15.08.2018 22:00:00 23,1 18,6 11 6 21 11 NO 1014,4 - 0,0
15.08.2018 21:00:00 23,1 18,6 10 5 13 7 ONO 1014,0 - 0,0
15.08.2018 20:00:00 24,2 18,6 9 5 13 7 O 1013,7 - 0,0
15.08.2018 19:00:00 24,9 19,3 4 2 7 4 NO 1013,7 - 0,0
15.08.2018 18:00:00 24,6 20,1 3 2 19 10 N 1013,9 - 0,0
15.08.2018 17:00:00 22,5 20,0 10 6 28 15 N 1013,8 20 0,4
15.08.2018 16:00:00 27,0 17,8 8 4 16 9 Z 1013,7 - 0,0
15.08.2018 15:00:00 26,6 19,2 5 3 14 8 OZO 1014,1 - 0,0
15.08.2018 14:00:00 24,4 20,3 4 2 10 5 O 1014,3 - 0,6
15.08.2018 13:00:00 25,2 17,7 4 2 20 11 WZW 1014,2 - 0,0
15.08.2018 12:00:00 25,3 16,4 4 2 21 12 W 1014,1 - 0,0
15.08.2018 11:00:00 25,6 16,2 10 5 17 9 W 1013,8 20 0,0
15.08.2018 10:00:00 28,2 17,7 5 3 20 11 ONO 1013,0 - 0,0
15.08.2018 09:00:00 26,2 18,6 7 4 14 8 NNO 1012,9 - 0,0
15.08.2018 08:00:00 23,6 18,5 6 4 21 11 NO 1012,5 15 0,0
15.08.2018 07:00:00 21,5 16,5 13 7 18 10 NNO 1012,8 - 0,0
15.08.2018 06:00:00 21,6 16,5 10 5 13 7 NNO 1011,9 - 0,0

tt = temperatuur
td = dauwpunt
ff = windsnelheid
fx = windstoten
dd = windrichting
ppp = luchtdruk
vv = zicht
rr = neerslag

Weerstations in de omgeving